Погода Балкашино

Погода Балкашино : погода сейчас, прогноз погоды и архив. Всё, что Вы хотите узнать о погоде Балкашино!

Поиск расширенной информации на нашем сайте:

Другие новости

Новости СМИ2

Главная страница сайта

Новости сайта

03.07.2017

Напоминаем, что на нашем специализированном сайте Метеоцентр.Азия вы можете получить высокодетализированные автоматические прогнозы погоды по пунктам России, СНГ и мира в авиационном формате (включающие направление и скорость ветра, видимость, явления погоды, количество и форму облачности, нижнюю и верхнюю границу облачности).

Рекомендуем: Кафельная плитка цена интернет магазин плитка.

Погода Балкашино - сегодня

Время (UTC), дата Ветер
(°,м/с) 
Видим.   Явления Облачность Т
(°С)
Тd
(°С)
f(%) Тe
(°С)
Pmin
(гПа)
dP
(гПа)
Po
(мм)
O2
(г/м3)
Тmin Tmax R s Состояние
почвы
15 16.08.17 тихо ()   20000 м    ясно 
+15.2 +7 58 +15  1021.5  0.5  731  278    +23.4       
18 16.08.17 тихо ()   н/о    ясно 
+8.8 +6.2 84 +9  1022.5  731  284    +23.4       
21 16.08.17 тихо ()   н/о    ясно 
+6.9 +5.1 88 +7  1022.8  -0.1  731  286           
00 17.08.17 тихо ()   20000 м    3/0 верхняя 
[Cc]
+4.5 +4 97 +5  1023.5  0.3  731  289           
06 17.08.17 020 (С) 20000 м    6/0 средняя, верхняя 
[Ac trans|Cc]
+22.9 +6.3 34 +23  1020.1  -0.3  731  271  +4.4         
09 17.08.17 310 (СЗ) 20000 м    9/5 600 м средняя, верхняя 
[Sc|Ac trans|Ci sp]
+23.2 +7.3 36 +23  1019.4  -0.6  731  270           
12 17.08.17 010 (С) 20000 м    8/4 600 м верхняя 
[Sc|Ci sp]
+22 +10.7 49 +25  1019.7  0.1  731  270           
15 17.08.17 020 (С) 20000 м    3/3 600 м верхняя 
[Sc diur, vesp|Ci fib]
+15.8 +10.8 72 +20  1021.2  0.5  731  276    +25.1       
18 17.08.17 тихо ()   н/о    ясно 
+13 +8.5 74 +13  1022.3  0.6  731  280    +25.1       
21 17.08.17 тихо ()   н/о    3/0 средняя 
[Ac trans]
+7.8 +6.5 91 +8  1023.1  -0.1  731  285           
00 18.08.17 тихо ()   20000 м    9/3 600 м верхняя 
[Sc|Cs]
+7.2 +6.3 94 +7  1023.8  0.5  732  286           
06 18.08.17 350 (С) 20000 м    8/8 1000 м 
[Cu med, cong]
+18 +5.6 44 +18  1022.4  732  276  +6.6         
09 18.08.17 140 (ЮВ) 20000 м    8/8 1000 м 
[Cu med, cong]
+19.9 +4.6 37 +20  1021.7  -0.4  732  274           
12 18.08.17 020 (С) 20000 м    6/6 1000 м 
[Cu med, cong]
+19.5 +2.4 32 +20  1021.8  0.1  732  275           
15 18.08.17 010 (С) 20000 м    3/3 600 м верхняя 
[Sc diur, vesp|Ci fib]
+12.9 +4.2 55 +13  1024.2  1.2  733  281    +21.1       
18 18.08.17 тихо ()   н/о    ясно 
+8 +5.1 82 +8  1025.5  0.5  733  286    +21.1       
21 18.08.17 тихо ()   н/о    ясно 
+4.9 +4 94 +5  1026.1  733  290           
00 19.08.17 тихо ()   20000 м    1/0 верхняя 
[Ci fib]
+3.7 +3.2 97 +4  1026.8  0.5  734  291           
06 19.08.17 030 (СВ) 20000 м    8/8 1000 м 
[Cu med, cong]
+17.6 +5 43 +18  1025.1  -0.5  734  277  +2.7         
09 19.08.17 360 (С) 20000 м    9/9 600 м 
[Sc]
+18.4 +4 38 +19  1024.6  -0.3  734  276           
12 19.08.17 330 (СЗ) 20000 м    8/8 600 м верхняя 
[Sc|Ci fib]
+18.8 +3.4 36 +19  1024.3  -0.3  734  276           
15 19.08.17 тихо ()   20000 м    8/8 600 м 
[Sc diur, vesp]
+13.4 +6.6 63 +13  1025.4  0.3  734  281    +19.4       
18 19.08.17 тихо ()   н/о    8/8 600 м 
[Sc]
+10.6 +7.3 80 +11  1026.2  0.3  734  283    +19.4       
21 19.08.17 тихо ()   н/о    9/9 600 м 
[Sc]
+9 +6.4 84 +9  1026.2  -0.3  734  285           
00 20.08.17 тихо ()   20000 м    9/9 600 м 
[Sc]
+7.4 +5.9 90 +7  1026.6  0.1  734  287           
Время (UTC), дата Ветер
(°,м/с) 
Видим.   Явления Облачность Т
(°С)
Тd
(°С)
f(%) Тe
(°С)
Pmin
(гПа)
dP
(гПа)
Po
(мм)
O2
(г/м3)
Тmin Tmax R s Состояние
почвы

Для получения пояснительной информации подведите курсор к названию столбца.

ПОГОДА Балкашино - архив

Всё, что Вы хотите узнать о погоде Балкашино - удобно и подробно!

Выберите нужную дату (начиная с 1 января 2015* года) и нажмите кнопку "Найти".
Будут отображены архивные сводки погоды по пункту Балкашино, начиная с указанной даты.


Отображать данные в формате CSV (для использования в таблицах Excel)


Внимание! Наш архив погоды предназначен исключительно для личного некоммерческого использования в познавательных целях. Если Вам необходимы официальные справки о состоянии погоды (для производственных, юридических, коммерческих и т.п. целей), обращайтесь в органы Росгидромета.

*Примечание: данная дата относится к архиву по метеостанциям СССР (Россия, СНГ, Балтия).
Архив по метеостанциям Зарубежной Европы и Азии (кроме Китая) хранится 10 дней, по другим регионам земного шара (Китай, Африка, Америка, Австралия, Океания) - 1 день.

Балкашино - район местоположения метеостанции


Название, широта, долгота, высота метеостанции:
Балкашино 52.5°ш. 68.8°д. 398 м над ур. моря [Казахстан]

Дополнительная информация

В oтличие oт бoльшинства пoгoдных сайтoв мы публикуем пoдрoбную метеoинфoрмацию в детальнoм прoфессиoнальнoм фoрмате.

Характеристики температуры и влажнoсти вoздуха измеряются на высoте 2 м в тени вдали oт зданий и деревьев.
Скoрoсть ветра измеряется на высoте 10 м (на урoвне рoста челoвека скoрoсть ветра ниже в 1.5-2 раза). Если метеoстанция нахoдится в гoрoде или в лесу, тo скoрoсть ветра занижена на 2-4 м/с пo сравнению с oткрытым местoм. Скoрoсть ветра над акватoриями крупных рек и oзёр, а также на вершинах хoлмoв на 2-5 м/с выше, чем в oбычных услoвиях.
Атмoсфернoе давление в разных тoчках местнoсти мoжет значительнo oтличаться oт давления на метеoстанции, в зависимoсти oт услoвий рельефа (при пoдъёме на 10 м давление пoнижается примернo на 1 мм рт.ст.).